Location: Chester
(43.2628°N, 72.5951°W)
Time: 05:26:42
(UTC-04:00)

ISS - Visible Passes

Search period start: 31 March 2023 00:00
Search period end: 10 April 2023 00:00
Orbit: 414 x 424 km, 51.6° (Epoch: 31 March)

Date Brightness Start Highest point End Pass type
(mag) Time Alt. Az. Time Alt. Az. Time Alt. Az.
31 Mar -3.3 20:47:13 10° WNW 20:50:29 54° SW 20:51:18 41° SSE visible
01 Apr -3.8 19:59:48 10° WNW 20:03:09 89° W 20:06:04 13° SE visible
01 Apr -0.9 21:38:12 10° WSW 21:39:04 12° WSW 21:39:04 12° WSW visible
02 Apr -1.5 20:50:06 10° W 20:52:34 19° SW 20:54:10 14° S visible
03 Apr -2.2 20:02:49 10° WNW 20:05:50 31° SW 20:08:49 10° SSE visible
05 Apr -0.8 20:08:15 10° WSW 20:09:16 11° SW 20:10:16 10° SSW visible
